Home > Weather > Gandhinagar > Past weeks

Flag for India Past Weather in Gandhinagar, Gujarat, India — Yesterday and Last 2 Weeks

Now
90 °F

Scattered clouds.


Feels Like: 108 °F
Forecast: 82 / 89 °F
Wind: 6 mph from Southwest

Location: Ahmadabad Airport

Current Time: Aug 29, 2016 at 2:49:02 PM

Latest Report: Aug 29, 2016 at 2:00 PM


Visibility: 2 mi

Pressure: 29.62 "Hg

Humidity: 75%

Dew Point: 81 °F

Location of GandhinagarLocation

Past Weather in Gandhinagar — Graph

°F

Gandhinagar Temperature Yesterday

Maximum temperature yesterday: 90 °F (at 12:30 PM)
Minimum temperature yesterday: 82 °F (at 1:00 AM)
Average temperature yesterday: 85 °F

High & Low Weather Summary for the Past Weeks

 TemperatureHumidityPressure
High93 °F (Aug 17, 3:30 PM)100% (Aug 24, 8:30 AM)29.74 "Hg (Aug 24, 8:30 AM)
Low75 °F (Aug 24, 5:30 AM)49% (Aug 17, 4:00 PM)29.50 "Hg (Aug 17, 5:30 PM)
Average83 °F80%29.62 "Hg
* Reported Aug 14 12:30 PM — Aug 29 1:00 PM, Gandhinagar, Weather by CustomWeather, © 2016

Note: Actual official high and low records may vary slightly from our data, if they occured in-between our weather recording intervals... More about our weather records

Advertising

Gandhinagar Weather History for the Previous 24 Hours

Scroll right to see more
 ConditionsComfort  
Time TempWeatherWind HumidityBarometerVisibility
1:00 PM
Mon, Aug 29
93 °FBroken clouds.5 mph67%29.65 "Hg1 mi
12:00 PM84 °FBroken clouds.5 mph84%29.68 "Hg1 mi
11:30 AM84 °FScattered showers. Broken clouds.3 mph84%29.71 "Hg1 mi
11:00 AM84 °FBroken clouds.5 mph84%29.71 "Hg2 mi
10:30 AM84 °FBroken clouds.3 mph84%29.71 "Hg2 mi
10:00 AM84 °FBroken clouds.5 mph84%29.71 "Hg2 mi
8:00 AM81 °FFog.7 mph89%29.68 "Hg1 mi
7:30 AM81 °FBroken clouds.6 mph89%29.68 "Hg1 mi
6:30 AM82 °FPartly cloudy.5 mph89%29.65 "Hg2 mi
6:00 AM82 °FPassing clouds.5 mph89%29.65 "Hg2 mi
5:30 AM82 °FPassing clouds.No wind89%29.65 "Hg2 mi
5:00 AM82 °FPassing clouds.2 mph89%29.65 "Hg2 mi
4:30 AM82 °FPassing clouds.No wind89%29.65 "Hg2 mi
4:00 AM82 °FPassing clouds.No wind89%29.65 "Hg2 mi
3:30 AM82 °FPassing clouds.3 mph89%29.65 "Hg2 mi
3:00 AM82 °FPassing clouds.6 mph89%29.65 "Hg2 mi
2:30 AM82 °FPassing clouds.5 mph89%29.65 "Hg2 mi
2:00 AM82 °FPassing clouds.6 mph89%29.65 "Hg2 mi
1:30 AM82 °FHaze.9 mph89%29.65 "Hg2 mi
12:30 AM84 °FPassing clouds.3 mph84%29.65 "Hg2 mi
8:00 PM
Sun, Aug 28
86 °FPassing clouds.No wind84%29.65 "Hg2 mi
7:30 PM86 °FPassing clouds.No wind84%29.65 "Hg2 mi
7:00 PM86 °FScattered clouds.No wind84%29.65 "Hg2 mi
6:30 PM88 °FScattered clouds.No wind79%29.62 "Hg3 mi
6:00 PM88 °FScattered clouds.No wind79%29.62 "Hg3 mi
5:30 PM86 °FBroken clouds.3 mph84%29.62 "Hg3 mi
5:00 PM86 °FBroken clouds.5 mph84%29.62 "Hg3 mi
4:30 PM86 °FBroken clouds.5 mph84%29.62 "Hg3 mi
3:30 PM86 °FBroken clouds.No wind84%29.62 "Hg4 mi
3:00 PM88 °FBroken clouds.No wind75%29.62 "Hg3 mi
2:30 PM90 °FBroken clouds.3 mph67%29.65 "Hg3 mi
Weather by CustomWeather, © 2016

See weather overviewHow to use our weather pages